SENTINEL-3B

Last updated on Sat Jul 05 2025 00:02:29 GMT+0000 (Coordinated Universal Time)

1 43437U 18039A 25185.13505601 .00000080 00000+0 51251-4 0 9999 2 43437 98.6294 252.6199 0001025 124.7069 235.4208 14.26734421374497
UTC large
Height (km)
Speed (km/s)
/
Latitude / Longitude
Inclination (degrees)
Orbital Period (minutes)
Azimuth
Elevation
Range (km)
Doppler Factor

Next 0 passes for location: London (51.5072 / 0.1276)

Sorry there are no passes over London.